Location: Dehesa de la Cepeda
(40.6574°N, 4.3013°W)
Time: 19:24:39
(UTC+00:00)

Explorer 7 - Pass Details

Date: 12 August 2021
Orbit: 484 x 676 km, 50.3° (Epoch: 17 September)

Event Time Altitude Azimuth Distance (km) Brightness Sun altitude
Exits shadow 04:20:42 - 299° (WNW) 2,519 9.9 -11.7°
Reaches altitude 10° 04:23:14 10° 317° (NW) 1,676 9.2 -11.3°
Maximum altitude 04:26:02 19° 5° (N) 1,216 9.0 -10.9°
Drops below altitude 10° 04:28:54 10° 53° (NE) 1,716 10.9 -10.4°
Sets 04:31:37 0° 72° (ENE) 2,631 12.2 -10.0°
